RH
11 11 10 11 12 11 13 14 23 29 32 41 44 48 48 44 40 40 45 54 71 81 78 64 57 65 78 86 86 80 75 76 76 84 87 80 80 75 70 62 56 58 57 58 60 63 67 70 70 69 70 71 71 68 64 56 47 40 37 36 36 35 33 30 26 23 20 19 19 19 20 21 23 23 24 24 24 24 24 23 22 21 20 19 18 17 17 16 16 15 15 15 15 15 15 15 16
10 10 10 11 12 15 21 24 35 46 56 68 66 65 66 59 52 55 62 71 83 91 92 82 79 89 97 96 94 92 86 82 81 86 83 77 77 63 56 55 54 56 53 54 57 61 64 66 70 72 74 72 67 58 50 42 37 36 36 35 32 28 24 21 19 18 18 19 21 23 24 25 25 24 23 22 21 19 18 17 16 15 14 13 12 11 11 10 10 10 9 9 10 9 10 10 11
10 11 16 19 24 30 38 42 48 59 75 85 76 71 71 71 73 75 80 87 94 97 97 95 93 93 93 92 92 89 79 72 66 63 62 62 61 50 45 47 50 50 49 53 59 64 67 72 77 77 71 62 52 46 42 40 39 36 33 28 24 20 18 18 19 20 22 24 26 26 25 23 21 19 18 16 14 13 12 11 9 9 8 7 7 6 6 6 6 6 5 5 6 5 6 6 6
13 21 30 35 44 52 59 66 74 82 89 87 75 73 78 85 90 88 91 94 94 99 98 94 92 89 82 77 83 80 65 57 48 43 45 51 51 50 55 56 59 59 62 69 72 75 76 79 78 70 60 52 48 44 41 37 32 28 24 20 18 18 19 22 25 25 25 25 23 21 19 16 14 12 11 9 8 7 6 6 5 5 5 5 5 5 5 5 5 5 5 5 5 5 5 5 5
21 31 38 42 49 63 77 84 92 99 99 93 81 80 84 85 88 89 94 92 87 95 97 91 89 89 77 66 75 73 56 46 44 46 51 63 65 66 72 73 77 79 80 80 78 75 71 71 66 60 55 50 45 39 34 29 25 21 19 18 21 24 26 27 26 24 21 18 15 13 11 9 8 6 6 5 5 4 4 4 4 5 4 5 5 5 5 5 5 5 6 5 6 6 5 5 5
27 39 47 52 56 70 85 89 95 100 95 89 82 82 84 86 92 94 96 93 87 90 89 84 80 81 74 64 67 64 57 53 58 71 76 80 77 74 76 76 79 79 78 74 69 65 63 63 60 56 48 42 36 32 28 23 20 20 22 25 27 27 25 22 19 16 13 10 9 7 6 5 4 4 4 4 5 5 5 5 5 5 5 6 6 6 6 6 6 6 6 6 6 6 6 6 6
42 58 68 72 74 80 87 92 96 97 87 77 78 81 84 91 97 97 98 91 80 81 81 78 75 72 67 64 65 64 68 69 74 85 84 81 76 73 73 70 71 71 72 70 69 68 66 62 54 47 39 35 31 26 22 21 24 27 28 27 24 21 17 14 11 9 7 6 5 4 4 4 5 5 5 5 6 6 6 6 6 7 7 7 7 7 7 7 7 7 7 7 7 7 7 7 7
61 68 71 73 75 80 86 91 89 84 77 68 72 79 85 93 92 94 98 89 76 79 77 72 76 73 68 68 68 68 75 77 76 77 74 73 73 73 71 69 69 70 72 71 71 66 58 51 43 39 33 29 25 22 23 27 29 27 23 19 16 13 10 8 6 5 5 5 5 5 5 5 6 6 6 7 7 7 7 7 7 8 8 8 8 8 8 8 8 8 8 7 7 7 8 8 8
61 60 59 62 67 78 87 88 79 73 72 67 70 75 82 87 84 86 90 87 83 86 77 68 74 73 69 73 71 71 77 76 73 75 75 75 72 67 63 62 61 59 59 56 54 49 45 42 38 33 27 24 24 25 27 26 23 18 14 11 8 6 5 5 4 5 5 5 6 6 6 6 7 7 7 7 8 8 8 8 8 8 8 8 8 8 8 9 9 9 8 8 8 8 8 8 7
54 54 52 56 65 78 85 81 72 69 74 76 77 79 80 79 77 79 85 86 86 88 80 73 77 75 73 76 73 76 81 76 77 81 79 76 71 60 53 51 50 46 46 45 39 35 33 33 32 26 25 27 27 26 23 19 14 10 8 6 5 5 5 5 6 6 6 7 7 7 7 7 8 8 8 8 9 9 9 9 9 9 9 9 9 9 9 10 10 9 9 9 9 8 8 8 8
54 54 55 63 71 78 77 71 69 69 76 80 78 79 77 73 72 73 83 89 89 89 85 80 80 80 80 75 73 82 86 85 85 82 75 73 68 59 54 48 42 38 37 36 29 25 25 27 29 27 27 26 23 19 14 10 7 5 5 5 5 6 6 6 7 7 7 7 7 8 8 8 9 9 10 10 10 10 10 10 10 9 9 10 10 9 9 9 9 9 8 8 8 8 8 9 9
57 58 63 72 75 74 70 65 69 73 77 79 74 72 71 70 69 69 79 89 91 92 90 85 78 80 81 73 74 82 84 86 86 76 65 62 58 52 48 41 32 30 29 28 25 27 28 29 29 25 21 17 13 11 7 5 5 5 5 6 6 6 7 7 7 8 8 8 8 9 9 10 10 11 11 11 11 10 10 10 10 9 9 9 9 9 8 8 8 8 8 8 7 7 8 9 10
58 59 65 74 72 65 66 63 66 76 76 75 72 68 66 64 66 68 74 81 84 88 88 82 79 82 79 71 73 76 73 71 68 62 58 55 53 50 46 41 33 29 29 30 32 32 30 26 21 15 11 9 7 5 5 5 5 6 6 7 7 7 8 8 8 8 9 10 10 10 11 12 12 12 12 11 11 10 10 9 9 8 8 8 8 8 8 8 9 9 9 9 9 9 10 10 11
59 59 62 65 61 55 60 63 64 74 73 69 70 67 62 56 58 64 71 76 76 78 79 73 76 81 76 67 66 67 61 58 58 59 65 59 52 50 43 38 35 33 34 33 32 27 21 16 12 8 6 5 5 5 6 6 6 7 7 8 8 8 8 8 9 9 10 11 12 12 12 13 13 12 11 11 10 9 9 9 9 8 8 9 9 10 11 11 12 12 12 13 13 13 13 13 13
65 59 58 50 50 54 56 60 67 74 68 64 67 65 60 53 51 56 67 78 78 76 76 70 69 70 66 62 63 68 58 58 70 70 66 55 44 44 39 36 36 34 31 26 22 17 12 8 6 5 5 5 5 6 6 6 7 8 8 8 8 9 9 10 10 11 12 13 13 13 13 13 12 11 11 10 9 9 9 9 9 9 10 12 13 14 14 15 15 15 15 16 16 16 16 16 16
65 51 51 43 45 54 52 53 63 72 68 63 66 64 61 56 51 53 60 72 76 73 71 66 59 55 57 63 70 75 63 60 76 70 53 43 41 42 40 37 32 26 21 16 12 8 6 5 5 5 5 6 6 7 7 8 8 8 9 9 9 9 10 11 12 13 13 14 15 14 13 13 11 10 10 10 10 10 10 10 11 13 14 14 15 15 14 13 13 13 13 13 14 15 16 18 19
58 45 44 41 41 45 46 47 54 65 65 61 62 61 59 54 49 47 48 54 60 57 55 54 47 47 56 69 75 72 60 56 62 58 45 40 40 36 31 28 22 17 13 9 6 5 5 5 5 6 6 7 7 7 8 8 8 9 9 9 10 11 12 12 13 14 15 15 15 13 12 11 10 10 10 10 10 10 12 13 14 14 13 11 10 9 7 7 7 7 7 7 9 10 12 14 17
54 48 38 37 42 41 44 47 51 61 63 61 57 55 55 49 41 39 38 39 43 45 50 56 53 54 61 69 72 65 56 51 50 49 44 39 32 25 22 19 14 10 6 5 5 5 6 6 6 6 7 7 7 8 8 9 9 9 9 11 12 12 13 14 15 16 15 15 13 12 11 10 10 10 10 11 12 14 15 14 11 9 6 5 4 3 3 3 4 4 4 4 4 5 6 9 12
53 49 37 38 45 43 45 42 45 57 61 59 50 51 55 45 38 38 37 32 33 43 55 63 60 61 65 63 65 64 56 49 45 40 35 29 23 18 15 10 7 5 5 6 5 5 6 6 7 7 7 8 8 9 9 9 9 10 11 12 13 14 15 16 16 15 14 13 12 11 10 10 10 11 12 14 15 15 11 7 4 3 3 3 3 3 4 3 4 3 4 3 3 4 4 6 8
47 45 42 43 44 42 47 41 37 46 52 51 43 46 48 39 38 41 41 35 34 49 59 59 53 51 52 50 53 57 50 41 35 30 25 21 16 12 8 5 5 5 5 6 6 6 6 7 7 7 8 8 9 9 9 10 10 11 12 14 15 16 16 15 14 13 13 11 10 9 10 11 12 14 15 15 13 8 4 3 2 3 4 4 4 4 4 4 4 4 4 4 4 5 5 7 8
45 44 44 45 43 40 48 46 37 38 43 42 38 41 42 39 40 40 44 43 43 54 58 52 47 42 40 42 45 44 37 30 27 24 20 14 9 6 5 5 5 5 6 6 7 7 7 7 7 8 8 9 9 10 10 11 12 13 15 16 17 16 15 14 13 12 11 10 9 10 12 13 15 16 15 11 6 3 3 3 4 4 4 4 5 5 5 5 5 5 5 6 6 6 7 8 11
49 44 40 41 42 38 43 43 36 35 36 33 32 37 40 41 40 40 49 51 49 57 57 48 47 46 43 43 40 34 28 25 23 18 12 8 5 5 5 6 6 6 6 6 7 7 7 8 8 9 9 10 10 11 12 13 14 16 17 16 16 15 14 13 13 12 10 10 10 12 14 15 16 15 11 5 3 3 3 4 4 4 4 5 5 5 6 6 6 6 6 7 7 7 8 11 14
47 42 37 35 34 31 32 34 33 32 32 32 38 42 39 38 40 43 50 53 53 57 55 46 46 49 41 35 31 26 25 21 16 10 6 5 5 6 6 6 6 6 7 7 7 7 8 8 9 9 10 10 11 12 14 15 17 17 16 16 16 16 15 14 12 10 10 11 12 14 16 16 16 12 6 3 3 3 4 4 4 4 5 5 5 6 6 7 7 7 7 7 7 8 10 13 15
42 39 36 32 31 33 32 32 33 32 32 34 40 44 38 40 45 45 48 56 58 54 53 47 43 39 30 26 25 21 18 12 8 6 5 6 6 6 6 7 7 7 7 7 7 8 8 9 9 10 10 12 13 15 16 16 17 16 16 17 17 16 15 13 11 11 12 11 13 15 16 17 14 8 4 4 3 4 4 4 4 4 5 5 6 6 7 8 7 7 6 6 8 9 11 13 14
39 35 35 37 37 38 38 36 36 38 41 40 42 44 42 44 45 46 53 57 54 50 50 45 34 29 25 22 19 14 10 6 6 6 6 6 6 7 7 7 7 7 7 7 8 8 9 9 10 11 12 14 16 16 17 17 17 17 18 18 17 16 14 12 11 12 12 12 15 16 17 17 12 6 4 4 4 4 4 4 5 5 5 6 6 7 8 8 7 7 6 6 7 8 11 12 13
42 34 37 45 47 44 43 41 42 45 46 46 47 46 43 41 41 47 58 57 50 48 43 34 28 25 22 17 12 8 6 5 6 6 6 7 6 7 7 7 7 7 8 8 8 9 9 10 11 13 14 16 17 17 17 18 19 19 19 19 18 16 13 12 12 12 13 14 16 17 18 15 10 6 5 5 4 5 4 5 5 5 6 6 7 8 8 7 7 6 5 5 5 6 7 9 10
47 42 43 49 50 49 49 47 49 51 49 50 46 43 44 43 44 50 56 54 47 42 33 27 26 23 17 11 8 6 6 6 6 6 7 7 7 7 7 7 7 8 8 8 9 10 10 11 12 15 16 17 17 18 19 19 20 20 21 20 18 15 13 13 13 14 14 15 17 18 17 14 10 7 5 5 5 5 5 5 5 6 7 7 8 8 8 7 6 4 4 3 3 3 4 4 4
52 51 51 51 49 49 51 50 53 52 52 57 50 47 52 51 51 52 50 46 38 31 27 26 23 17 11 7 6 6 6 7 7 7 7 7 7 7 7 7 8 8 9 9 10 10 11 13 15 16 17 17 18 19 20 21 22 22 22 20 17 14 14 15 16 17 17 18 19 19 18 16 12 8 7 6 6 6 5 5 6 7 8 8 9 8 7 6 4 3 3 2 3 2 2 2 2
52 51 52 51 48 48 49 47 51 51 53 60 54 49 54 54 52 47 41 35 29 27 26 23 17 11 8 6 6 6 7 7 7 7 7 7 7 7 8 8 8 9 9 10 10 11 12 15 16 17 18 18 19 20 22 23 24 24 22 19 17 15 15 17 19 21 22 22 22 22 21 18 14 10 8 7 7 6 6 6 7 7 8 9 9 8 6 4 3 3 2 3 3 2 2 2 2
48 46 48 49 46 45 46 47 50 50 51 55 48 40 40 41 40 34 30 28 26 26 23 17 12 8 6 6 7 7 7 7 6 7 7 7 8 8 8 8 9 10 10 10 11 12 14 16 18 18 19 20 21 22 24 25 25 25 23 20 18 17 17 19 22 23 25 26 25 24 22 19 16 12 9 8 7 7 7 7 8 9 9 9 8 6 4 3 3 2 3 3 1 2 2 2 6
44 42 43 43 43 43 45 48 49 46 42 40 37 33 29 28 29 27 27 27 25 22 17 13 8 6 6 6 7 7 7 7 7 8 8 8 8 9 9 9 10 10 10 11 12 13 15 17 18 19 20 21 23 24 25 26 26 26 24 21 20 20 19 20 22 24 26 27 27 24 21 19 16 13 11 9 8 8 8 9 9 10 9 9 7 4 3 3 2 2 2 1 2 3 2 7 14
38 38 37 37 39 40 42 44 44 41 34 30 30 30 27 26 26 26 26 24 21 17 13 9 6 6 7 7 7 7 7 7 8 9 9 9 9 9 10 10 10 10 11 12 13 15 16 18 19 21 22 23 24 25 26 26 27 27 25 23 22 22 21 20 20 22 25 27 27 24 20 19 16 13 11 9 9 9 9 10 10 10 9 7 4 3 3 2 2 2 2 2 3 3 8 18 20
43 40 35 33 34 35 38 40 39 37 32 28 29 28 27 27 26 26 23 19 17 14 9 6 6 7 7 7 7 6 7 8 9 9 10 10 9 10 10 10 11 11 12 12 14 16 16 19 21 22 23 24 25 25 26 27 27 28 27 25 24 23 21 20 19 20 24 28 28 24 21 19 16 13 11 10 11 10 10 11 10 10 8 5 3 3 3 2 2 2 2 3 2 8 21 24 22
51 47 40 34 31 31 32 35 36 35 33 30 30 29 28 27 26 23 18 15 13 9 7 6 6 7 7 7 6 7 8 9 10 10 10 10 10 11 11 11 11 11 12 13 15 17 18 20 22 23 23 24 25 25 26 27 28 28 28 27 25 24 22 20 19 19 23 29 28 23 21 18 15 13 12 11 11 11 12 11 10 9 6 4 3 3 3 2 2 2 3 3 4 22 33 24 27
46 46 44 40 36 33 31 32 33 33 33 32 31 30 29 27 23 19 16 14 10 7 6 6 6 7 7 7 7 7 9 9 10 10 11 11 11 11 11 11 11 12 13 14 16 17 19 22 23 24 24 24 24 24 25 26 28 29 28 28 25 24 23 22 21 19 24 30 27 22 20 17 15 13 12 13 12 12 12 11 10 7 4 4 2 3 2 2 3 2 4 4 11 37 38 25 36
40 40 43 45 42 38 34 32 32 33 33 32 30 29 29 28 21 16 15 11 7 6 6 6 7 7 6 7 7 8 9 10 11 11 11 11 11 12 12 12 12 13 14 14 16 18 21 23 24 25 24 24 24 24 25 26 27 28 28 28 26 25 24 24 22 20 26 31 26 22 19 16 15 14 14 13 12 13 12 11 9 5 3 3 2 3 2 2 4 2 5 10 28 51 41 31 44
41 37 37 44 48 46 40 34 31 32 33 31 28 27 28 28 21 16 14 9 6 6 6 7 6 6 7 7 7 8 9 10 10 11 11 11 11 12 12 12 12 13 14 15 17 18 21 24 25 25 24 24 24 24 25 26 27 27 28 28 26 25 24 24 23 21 27 31 25 21 19 16 15 14 14 14 13 13 12 10 7 4 3 3 3 3 2 3 3 3 10 23 47 59 42 37 43
53 46 37 37 46 51 45 39 35 32 31 29 26 24 26 27 21 16 12 7 5 6 6 7 6 6 6 6 7 8 9 9 10 10 10 11 11 11 12 13 13 13 14 16 17 18 21 24 26 26 26 25 24 24 25 26 27 27 28 28 26 24 23 25 23 21 29 32 25 21 18 16 15 15 15 14 14 13 11 9 5 3 3 3 3 2 3 3 2 10 25 42 62 61 42 39 39
62 61 53 42 41 45 42 38 36 35 32 30 27 24 24 25 22 17 12 7 6 6 6 6 6 6 6 6 6 7 8 8 8 9 9 10 11 11 12 12 13 14 15 16 18 18 19 23 27 26 26 26 24 25 25 26 27 27 28 27 25 24 23 24 22 22 31 32 24 20 18 15 15 16 15 15 15 13 11 8 4 3 3 3 3 2 3 2 7 26 44 56 67 59 45 43 42
56 60 62 56 45 41 40 38 36 36 36 35 33 30 26 25 22 16 10 7 6 6 6 6 6 6 6 6 7 7 7 7 7 8 8 10 10 10 11 12 12 14 15 17 18 18 18 21 26 26 26 26 25 25 25 26 26 26 27 26 25 23 22 24 21 24 34 32 24 20 17 15 16 17 16 16 15 12 11 7 4 3 3 3 3 3 3 2 16 41 54 59 61 54 47 44 41
56 56 60 61 53 47 44 41 36 34 34 36 37 37 31 25 18 12 8 6 6 6 6 6 6 6 6 6 7 7 7 7 8 9 9 9 10 10 10 10 12 13 15 17 17 18 17 19 24 26 25 26 25 25 25 26 26 26 27 25 24 22 22 23 21 27 36 31 23 19 16 15 17 17 17 16 14 12 10 6 3 3 3 4 2 3 3 3 23 46 49 48 49 44 41 38 32
61 58 57 59 58 55 52 48 41 34 31 30 32 35 33 25 15 9 6 5 6 7 7 7 6 7 7 7 8 8 8 9 9 9 10 10 10 10 10 10 11 13 14 17 18 17 17 18 22 25 25 25 26 26 25 25 25 26 27 25 24 22 22 23 22 30 37 29 22 18 15 16 17 19 18 17 15 12 10 6 3 4 3 4 3 4 3 3 24 44 39 34 37 37 37 35 32
63 60 57 58 57 54 52 48 42 36 32 27 24 26 28 23 15 9 8 8 9 9 8 8 7 7 8 8 8 8 9 9 9 10 10 10 10 10 10 11 11 12 14 16 17 17 17 17 21 23 24 24 25 26 25 25 25 26 26 25 24 22 22 23 23 33 37 26 20 17 15 16 19 20 19 17 15 12 10 6 3 4 3 4 3 3 3 2 20 41 38 30 34 38 40 37 31
65 63 60 59 58 57 54 49 42 35 30 25 21 20 20 18 15 12 11 11 11 10 10 9 9 8 8 9 8 8 9 8 9 9 9 9 9 10 10 11 12 12 13 14 15 16 16 17 20 22 24 24 25 25 25 25 25 26 26 25 24 21 22 23 24 35 35 23 18 16 15 18 20 21 19 18 15 12 11 6 3 5 4 4 4 3 4 2 16 44 50 40 38 42 48 48 37
63 62 63 63 62 61 60 58 53 44 32 24 20 20 19 16 15 14 14 13 12 11 11 10 10 9 9 9 9 9 9 9 9 9 10 10 9 10 10 11 12 12 13 13 13 14 15 16 19 21 23 23 24 25 25 25 25 26 26 25 24 21 22 23 26 37 33 19 17 16 16 19 21 22 21 18 16 12 11 6 3 5 4 4 4 3 4 2 10 37 54 51 47 46 50 57 53
59 61 63 66 66 63 62 62 62 55 43 32 25 23 23 19 16 15 15 15 14 13 12 11 11 10 10 10 9 10 10 10 11 11 11 11 10 10 11 12 12 12 13 13 13 13 14 16 18 20 21 22 23 24 24 24 25 26 25 25 23 21 23 23 28 38 30 17 16 16 16 20 22 23 22 19 16 13 11 7 3 4 4 4 5 3 4 3 3 18 41 56 60 57 54 62 71
57 61 65 67 66 65 64 62 62 60 53 47 42 37 30 23 21 21 19 19 18 17 16 15 13 12 12 11 11 11 12 12 12 13 12 12 11 12 12 14 15 15 15 14 14 13 14 15 17 18 20 21 22 23 24 24 25 26 25 25 23 21 23 23 30 38 27 15 17 17 17 21 23 24 23 20 17 13 12 8 4 4 5 4 5 4 4 4 2 5 22 47 63 66 66 73 85
57 59 64 66 66 66 65 63 62 63 62 61 61 57 44 30 25 24 25 26 25 22 19 18 16 15 15 15 16 14 13 14 14 14 14 13 14 14 15 16 17 19 19 18 18 16 15 15 15 17 18 20 21 22 23 23 25 25 25 25 23 22 23 23 32 39 24 15 17 17 19 22 24 26 24 22 18 14 13 9 5 4 5 5 5 5 4 4 4 2 7 26 51 67 73 80 93
57 60 65 66 64 66 68 67 64 63 65 67 69 68 58 46 37 31 29 27 24 24 24 23 20 18 16 16 18 17 16 17 16 15 15 14 16 16 17 18 19 21 21 21 21 20 20 18 17 17 17 19 20 21 23 23 24 25 25 25 22 22 23 23 34 39 23 14 18 18 20 24 25 27 25 23 19 15 13 11 6 4 5 5 4 5 5 4 4 4 2 8 28 52 68 77 89
57 62 68 71 68 66 69 71 67 64 65 68 69 70 67 61 56 52 49 40 30 24 24 25 22 18 16 15 16 16 18 21 20 19 17 16 16 16 17 19 20 22 22 22 22 22 23 22 21 20 18 18 19 20 22 22 24 25 24 26 23 22 24 23 35 40 22 14 19 19 22 25 27 28 27 25 21 16 14 12 8 4 4 5 5 5 5 4 4 4 4 2 7 26 49 65 76
60 64 70 76 73 69 69 71 70 67 67 68 69 70 70 68 67 68 67 61 53 43 31 23 19 17 16 15 16 17 20 23 23 22 22 21 20 19 19 21 22 23 23 23 24 25 26 26 25 24 21 20 19 19 21 22 24 25 25 26 23 22 24 24 37 40 21 15 20 21 24 27 28 29 27 26 22 17 15 13 10 6 4 5 5 5 5 5 5 4 4 4 2 7 24 47 63
66 70 74 80 79 74 71 68 68 67 65 65 70 75 74 71 68 67 66 65 66 66 55 38 29 26 26 26 26 26 26 27 27 27 27 28 27 25 24 24 24 23 23 24 26 27 28 27 27 27 25 23 20 19 20 21 24 25 25 26 23 23 24 25 38 39 20 15 21 22 25 28 30 30 28 27 24 19 17 15 12 8 5 5 5 6 6 5 5 5 4 4 4 3 7 25 49
71 72 72 80 83 78 72 65 64 63 60 62 70 75 74 73 71 67 65 63 66 72 69 60 53 50 49 48 46 45 45 44 42 40 39 39 38 34 32 30 27 25 24 25 26 26 26 25 26 28 28 26 23 20 20 21 24 25 25 26 23 23 24 26 39 37 19 16 21 23 27 30 32 31 28 28 26 22 18 16 14 10 6 5 5 6 6 6 6 5 5 5 4 4 2 7 26
67 66 63 70 77 75 69 63 61 60 57 59 68 72 69 68 69 68 64 63 67 70 68 67 67 64 61 58 54 53 54 54 52 51 50 48 46 41 37 35 32 29 28 27 27 25 23 23 25 28 29 29 25 22 20 21 24 25 26 26 22 23 24 27 39 34 17 16 21 24 29 31 33 33 29 29 28 25 21 17 16 13 9 6 5 6 6 6 6 5 5 6 4 4 4 2 6
55 54 49 52 59 62 62 59 58 59 60 62 66 68 64 60 60 59 55 58 67 71 68 67 66 62 58 54 52 51 50 51 53 53 54 53 50 44 39 36 34 33 31 28 25 23 22 22 25 28 30 30 27 24 21 21 23 24 26 25 22 23 23 29 38 30 15 17 22 25 31 33 34 35 31 30 29 28 24 19 17 15 12 8 5 6 7 6 7 6 6 6 6 5 4 4 3
55 52 45 41 42 46 52 57 57 57 61 66 65 62 61 59 57 53 50 53 63 71 70 65 61 58 55 51 49 47 45 46 48 50 52 53 51 47 42 39 36 34 32 28 25 23 22 22 24 27 30 30 28 25 22 22 23 24 26 25 22 24 24 30 38 26 14 18 22 26 32 33 35 36 33 31 30 30 28 22 19 17 15 11 7 6 7 7 7 7 7 6 6 6 5 4 5
54 52 47 44 43 41 45 52 54 51 54 58 58 56 55 57 59 58 54 52 55 60 59 52 49 51 53 50 45 41 40 42 44 46 50 51 50 49 47 42 38 36 33 29 26 24 22 22 23 25 28 29 28 25 22 22 22 23 26 24 22 24 24 32 37 23 14 19 23 28 32 33 35 36 35 33 31 31 31 27 22 19 17 14 10 7 6 7 8 7 7 8 6 6 6 5 5
51 52 50 51 52 51 50 50 49 48 50 51 53 55 55 56 57 58 62 61 56 53 46 39 39 43 48 47 41 37 36 39 42 42 46 52 53 51 50 49 43 39 37 32 28 25 22 22 21 23 26 28 28 25 22 22 22 23 25 22 22 24 25 34 36 21 14 19 24 28 32 33 35 36 36 35 32 32 34 32 27 23 20 17 14 10 8 7 8 8 7 8 8 7 7 7 5
Wind_Speed
11 10 10 10 11 12 11 10 10 10 12 14 15 14 15 14 14 14 15 14 13 13 14 15 17 17 17 16 15 15 14 14 14 14 13 12 10 8 7 7 8 8 8 8 7 7 7 7 7 8 9 9 9 9 9 10 10 10 11 11 11 12 13 14 15 16 16 17 18 18 18 19 19 19 20 20 20 20 21 21 21 22 22 23 23 24 24 25 25 26 26 27 27 28 28 29 29
9 8 8 8 8 8 8 8 9 9 11 13 14 13 12 11 12 14 15 15 14 13 12 12 10 6 10 12 12 12 11 10 9 10 11 10 8 7 7 8 8 8 8 7 6 6 7 7 7 8 8 8 7 8 8 9 9 10 10 11 11 12 13 14 15 15 16 17 17 17 17 17 17 18 18 18 18 19 19 19 20 21 21 22 22 23 23 24 24 25 26 26 27 27 28 28 29
6 6 5 6 6 7 7 8 8 10 13 15 16 14 11 10 10 12 14 13 11 9 6 6 5 7 11 12 11 12 11 10 9 9 9 8 8 8 8 8 8 7 6 5 5 6 7 7 6 6 6 6 6 7 8 8 9 9 10 10 11 12 13 14 14 15 15 15 15 15 15 15 15 16 16 16 17 17 18 19 19 20 21 21 22 22 23 23 24 25 25 26 26 27 28 28 29
4 4 4 4 5 7 7 8 10 12 14 15 14 12 9 7 4 4 5 3 2 5 6 7 9 10 11 11 12 12 10 10 9 8 7 7 7 6 6 6 5 4 4 4 5 6 6 5 4 4 4 5 6 7 7 8 9 9 10 10 11 12 12 13 13 14 13 13 13 13 14 14 14 15 15 16 16 17 18 19 19 20 21 21 22 23 24 24 25 26 26 27 27 28 29 29 30
4 4 5 5 6 6 7 10 13 12 11 12 10 6 3 1 1 1 1 3 4 6 7 7 9 10 11 11 12 11 9 9 9 8 7 6 5 5 5 5 4 4 4 4 4 4 4 3 3 3 4 5 6 7 7 8 8 9 9 10 10 11 11 11 11 11 11 11 11 12 12 13 14 15 15 16 16 17 18 19 20 21 21 22 23 24 25 26 27 27 28 28 29 29 30 31 31
3 5 6 7 8 7 10 13 12 8 6 7 3 0 1 1 2 2 2 4 6 8 7 8 11 10 10 11 11 11 10 9 9 8 6 5 5 5 5 5 5 5 4 4 3 3 3 3 3 3 5 5 6 6 6 7 8 8 8 9 9 9 9 9 9 9 9 10 11 11 12 13 14 14 15 16 17 18 19 20 21 22 23 24 24 25 26 27 28 28 29 30 30 31 31 32 32
2 4 6 8 10 10 13 13 8 3 2 0 5 4 3 3 4 4 4 7 8 9 9 9 11 10 10 10 10 11 10 9 8 8 7 7 7 6 5 5 5 4 3 3 3 3 3 3 3 4 5 5 5 5 6 6 7 7 7 7 7 7 7 7 8 8 9 10 10 11 12 13 14 15 16 17 18 19 20 21 22 23 24 25 26 26 27 29 29 30 31 31 32 32 33 33 34
3 5 7 9 11 12 12 10 5 4 5 6 8 7 6 7 7 6 6 9 9 9 10 10 10 9 8 9 9 11 11 9 9 8 8 9 7 6 5 5 4 3 3 3 4 4 4 3 3 4 4 4 4 4 5 5 5 5 5 5 5 5 6 7 7 8 9 10 11 12 13 14 15 16 17 18 19 20 21 22 23 24 25 26 27 28 29 30 31 31 32 33 33 33 34 35 35
5 7 8 9 10 11 9 6 3 5 7 8 8 7 7 8 8 8 8 9 8 9 10 10 10 8 8 9 10 11 11 10 10 9 9 8 6 6 5 5 4 4 4 4 4 4 3 2 2 3 3 3 3 3 3 3 2 2 2 3 4 4 5 6 7 9 10 11 12 13 14 15 16 17 18 20 20 21 22 23 24 25 26 28 29 29 30 31 32 33 33 34 35 35 35 37 37
8 9 9 9 10 9 6 3 3 5 7 8 8 8 7 8 9 8 9 9 9 8 9 10 10 9 10 11 13 12 11 10 10 9 8 6 5 5 5 4 5 4 4 4 4 3 2 1 1 1 0 1 1 1 1 1 1 2 2 3 4 5 6 8 9 10 11 12 14 14 16 16 17 19 20 21 22 23 24 25 26 27 28 29 30 31 31 32 33 34 35 35 37 37 37 38 39
10 11 10 10 9 6 3 3 3 5 8 9 8 7 7 8 9 9 10 11 10 8 8 10 11 11 10 11 13 13 11 9 8 8 7 6 5 5 5 5 5 4 4 3 3 3 2 2 2 2 2 2 3 2 2 2 3 3 3 4 5 7 8 9 11 12 13 14 15 16 17 18 19 20 22 23 24 25 26 27 28 29 30 31 32 33 33 34 34 35 36 37 38 38 38 38 39
11 12 11 9 6 3 2 3 4 5 6 7 7 7 8 8 8 9 11 11 11 9 9 10 10 10 10 11 13 12 10 8 7 8 7 6 5 5 4 4 4 4 4 4 4 4 4 4 5 5 4 5 5 4 3 4 4 4 5 6 8 9 10 11 12 13 14 15 16 17 18 19 21 22 23 24 25 26 27 28 29 30 30 31 32 33 34 35 35 36 37 38 38 39 39 39 39
12 12 10 7 4 2 2 5 4 4 5 6 7 7 8 8 8 9 11 11 12 11 11 12 12 11 10 11 13 12 11 9 8 7 6 6 6 6 5 5 5 5 5 6 7 7 6 6 7 7 6 6 5 4 4 5 5 6 7 8 9 10 11 12 13 13 14 15 17 18 19 21 22 23 24 25 26 27 27 28 29 30 30 31 33 34 34 35 35 36 36 37 38 38 39 39 40
12 11 8 6 4 2 3 4 4 4 5 6 6 7 8 8 9 9 10 11 12 12 11 13 13 12 9 10 12 12 11 10 8 7 6 6 6 6 7 7 7 8 8 8 9 9 8 8 8 7 6 6 5 5 6 6 7 7 8 9 10 10 12 12 13 14 15 16 18 20 21 22 23 24 24 25 26 27 28 29 30 31 31 31 32 33 33 34 35 35 36 37 38 38 39 40 40
10 8 6 5 4 3 3 4 5 4 4 5 6 7 7 7 8 9 10 11 12 11 11 12 13 12 10 9 12 11 11 10 9 8 7 7 6 7 8 9 10 10 10 10 10 10 10 9 8 7 6 6 6 6 7 7 8 8 9 9 10 11 11 12 13 15 16 18 19 21 22 22 23 24 25 26 27 28 28 30 30 31 31 31 31 33 33 34 35 36 37 37 38 39 40 40 41
7 6 6 5 4 3 3 3 4 3 3 4 5 7 7 6 7 9 10 10 10 10 10 11 12 12 10 10 12 12 12 11 10 9 9 9 8 9 10 11 12 12 12 11 11 11 10 9 8 7 6 6 7 8 8 8 8 8 9 9 10 11 12 14 15 16 17 19 20 22 22 23 24 25 26 26 27 28 29 29 29 30 31 32 33 34 35 36 37 37 38 39 39 40 41 42 43
6 6 6 5 4 3 3 3 2 2 1 2 3 5 6 5 6 8 8 8 9 8 9 11 12 12 10 10 11 12 11 9 9 9 10 11 10 11 12 12 13 12 12 12 11 11 10 9 8 7 7 7 8 8 8 8 8 8 9 10 11 12 13 14 16 17 19 20 21 22 23 23 25 25 26 27 27 28 28 28 29 31 32 33 34 35 36 37 38 39 40 40 41 42 42 43 44
6 6 6 5 5 4 4 2 2 2 1 2 2 4 5 4 5 6 7 7 7 7 9 11 12 12 11 10 10 10 10 9 9 10 11 12 12 12 13 13 13 13 12 12 11 10 9 9 8 8 8 8 8 8 8 8 8 9 10 11 11 13 14 15 17 19 20 21 22 22 23 24 25 26 26 27 27 27 28 29 30 31 32 33 35 36 37 38 40 41 41 42 43 43 44 44 45
6 6 6 6 6 5 4 2 1 1 1 1 1 3 3 4 6 7 7 7 8 8 9 11 11 12 11 11 11 10 10 10 11 12 13 13 13 13 14 13 13 13 12 11 11 10 9 9 8 8 8 8 7 8 8 8 9 9 10 11 12 14 15 17 18 19 20 21 22 23 24 25 25 25 25 26 27 28 29 30 31 32 33 35 36 38 39 40 41 43 43 44 45 45 46 46 46
6 7 7 7 6 5 4 3 2 1 1 1 1 2 2 3 5 7 7 6 8 9 9 10 9 10 10 11 12 11 11 12 13 13 14 14 14 14 14 13 13 12 11 11 10 10 9 8 7 7 7 7 7 7 7 8 9 10 11 12 14 15 17 18 18 19 20 21 22 24 24 24 24 25 26 27 28 28 29 30 31 33 34 36 37 39 40 42 43 44 45 45 46 46 47 47 48
8 8 8 7 6 4 4 4 2 1 1 1 2 3 3 3 5 8 8 6 9 9 8 8 8 9 10 11 12 13 13 14 14 14 14 14 14 14 13 13 12 11 11 10 9 9 8 7 7 7 6 6 7 7 7 8 9 10 12 14 15 16 17 18 18 19 21 23 24 24 23 24 25 26 27 28 28 29 30 31 32 34 35 37 39 40 41 43 44 45 45 46 47 47 48 49 49
9 8 7 6 5 4 4 3 3 2 2 1 2 4 5 5 6 8 7 6 9 9 8 8 8 9 10 12 13 14 14 15 15 15 15 15 14 13 13 12 11 11 10 9 9 8 8 7 6 6 6 6 6 7 7 8 10 11 13 14 15 16 17 18 20 22 23 24 24 23 24 25 27 28 28 28 29 29 31 32 34 36 37 39 40 41 43 44 45 45 46 46 47 48 49 49 49
9 8 7 6 4 4 4 4 4 3 2 2 3 4 5 5 6 8 8 7 9 9 8 8 9 10 12 13 13 14 15 15 15 15 15 14 13 12 12 11 10 10 9 9 8 7 7 6 6 6 6 6 6 7 8 10 11 12 14 15 16 17 19 21 23 23 24 24 24 24 26 27 29 29 29 29 29 31 32 34 36 38 39 41 42 43 44 45 45 46 46 47 48 48 49 49 48
9 8 7 6 5 5 5 5 4 4 3 4 4 4 5 6 6 8 9 8 9 10 9 9 10 11 13 14 14 15 15 15 15 14 14 13 12 11 11 10 9 9 8 8 7 7 6 6 6 6 6 6 7 8 10 11 12 13 14 15 17 19 22 23 24 24 25 25 25 26 28 29 30 29 29 30 31 33 35 36 38 40 41 43 43 44 45 46 46 46 47 47 48 48 48 48 47
9 8 7 6 6 6 6 5 5 5 5 5 5 5 5 6 7 8 9 8 9 10 10 10 11 12 13 14 15 15 16 15 14 13 13 12 11 11 10 9 9 8 8 7 7 6 6 6 5 5 6 7 8 10 11 12 13 14 15 18 20 22 23 24 24 25 26 27 27 28 30 31 31 30 30 32 33 35 37 39 40 42 43 44 45 45 46 46 47 47 48 48 48 49 49 49 50
9 8 7 7 7 7 6 6 6 6 6 6 5 5 6 6 7 8 8 7 9 10 11 12 12 13 14 15 16 16 15 14 13 13 12 11 10 9 9 8 8 8 7 7 6 6 6 5 5 5 6 8 9 10 11 13 14 16 18 21 22 23 24 25 26 27 28 28 29 30 31 31 31 31 32 33 35 37 39 40 42 43 44 44 45 45 46 46 47 48 48 49 50 51 51 52 52
10 9 8 8 8 8 7 6 7 6 7 7 6 7 7 6 6 8 8 8 9 10 11 12 13 13 14 15 15 14 14 13 12 11 11 10 9 8 8 8 7 7 6 6 6 5 5 5 5 6 7 9 10 11 12 14 16 18 21 22 23 24 26 27 28 29 29 29 30 32 33 32 32 32 33 35 37 38 40 41 42 43 44 44 45 45 46 46 47 48 49 50 51 52 52 53 52
11 10 10 9 8 8 7 7 7 6 8 8 5 8 8 7 6 7 9 9 10 11 12 12 13 13 14 14 13 13 12 12 11 10 9 9 8 8 7 7 7 6 6 5 5 5 5 5 5 7 9 10 11 12 14 16 18 20 22 24 25 27 28 29 29 30 30 31 32 33 34 34 33 34 35 36 38 40 41 42 42 43 43 44 44 45 45 47 48 49 50 51 53 53 53 52 50
11 11 11 10 9 9 7 7 8 7 9 8 5 8 8 7 7 7 9 10 11 12 12 13 13 13 13 13 12 12 11 11 10 9 9 8 8 7 7 7 7 6 5 5 5 4 4 5 6 8 10 11 12 14 16 18 20 22 23 25 27 29 30 30 30 31 31 32 34 35 35 35 34 35 36 38 39 40 41 42 42 42 43 44 44 44 45 46 48 49 51 52 53 53 51 49 46
11 12 12 11 10 10 9 9 8 7 9 8 7 9 9 8 8 9 10 11 12 12 13 13 13 13 12 12 11 11 10 10 9 8 8 8 8 7 7 6 6 5 5 5 4 4 4 5 7 9 10 12 13 15 18 19 20 22 25 27 29 30 31 31 31 32 33 34 35 36 36 35 35 36 37 39 40 41 41 41 42 42 43 43 44 44 45 46 48 50 52 53 52 49 46 44 43
12 12 12 11 11 10 10 10 8 7 8 8 8 9 9 9 9 10 11 11 11 12 13 13 13 12 11 11 10 10 10 9 8 8 8 7 7 7 6 5 5 5 4 4 3 3 4 6 8 10 11 13 15 17 18 19 21 24 26 28 30 31 31 32 32 33 34 35 36 37 37 36 36 37 38 39 40 41 41 41 42 42 43 43 43 44 45 47 49 52 53 52 49 46 44 42 38
14 14 13 12 11 9 9 9 8 8 8 8 9 10 10 10 9 9 10 10 11 12 13 13 12 11 10 10 9 9 9 8 8 8 7 6 6 6 5 4 4 4 3 3 3 3 5 7 8 10 12 14 15 17 18 20 22 25 27 29 30 31 32 33 34 34 35 36 37 38 37 37 37 37 38 39 40 40 41 41 41 42 42 43 43 44 46 49 51 53 52 49 46 45 42 38 34
15 14 14 13 11 9 9 9 9 9 8 8 9 9 9 9 8 9 9 10 12 12 12 12 11 10 9 8 8 8 7 7 7 7 6 5 5 5 4 3 3 3 3 3 3 4 6 7 9 11 12 14 15 16 18 20 23 25 27 29 31 32 34 35 35 36 36 37 37 38 37 37 37 38 39 39 40 40 40 41 41 42 42 42 43 45 48 51 52 52 50 47 46 43 38 34 31
15 14 14 13 11 9 8 8 8 8 9 8 8 8 8 8 7 7 9 10 11 12 11 10 10 9 8 7 7 6 6 6 6 6 5 5 5 5 4 4 4 4 3 3 4 5 7 8 10 12 13 14 15 16 18 21 23 25 27 29 31 33 35 36 37 37 36 37 37 37 37 37 37 38 39 39 40 40 40 41 41 42 41 42 44 47 50 52 52 50 48 47 44 39 34 31 28
15 14 14 13 12 10 9 8 8 7 7 7 7 7 7 7 7 7 9 9 10 11 10 9 9 8 8 7 6 5 5 5 5 4 4 4 5 5 5 5 5 4 4 4 5 6 8 9 11 12 13 14 15 17 19 21 23 25 27 29 31 34 36 37 38 37 37 37 38 37 37 37 38 39 39 39 40 40 40 40 41 41 41 42 45 49 51 51 50 48 47 46 41 35 31 28 27
16 15 14 12 11 11 10 9 8 7 6 5 6 6 6 6 7 8 8 9 9 9 9 8 8 7 7 6 5 4 4 4 3 3 4 4 5 5 6 6 6 6 5 6 6 7 9 10 11 12 13 15 16 18 19 21 23 25 27 30 32 35 36 38 38 38 37 38 38 37 36 37 38 39 40 40 39 39 39 40 40 40 41 44 47 50 52 51 49 48 46 43 38 34 29 25 26
16 15 13 12 11 10 10 9 9 7 6 5 4 5 6 6 7 8 8 8 8 8 7 7 6 6 5 5 4 3 2 3 3 3 4 5 5 6 6 7 7 7 6 7 8 8 9 10 11 12 14 16 17 18 20 21 23 26 28 30 32 34 36 37 38 38 38 38 38 37 37 38 39 40 40 39 39 39 39 40 39 39 41 45 48 51 52 51 49 48 46 42 37 32 27 25 28
15 14 13 12 11 10 10 9 9 8 6 6 5 4 6 6 7 7 7 7 7 7 6 6 5 4 4 4 3 2 2 2 3 4 5 6 6 7 7 8 8 7 7 8 9 9 10 11 12 13 15 16 18 19 20 22 24 26 28 30 32 34 35 37 39 39 38 39 39 37 37 38 40 40 40 39 38 38 39 39 38 39 42 46 49 52 52 51 50 48 45 40 35 30 27 29 32
13 13 12 11 11 10 10 9 9 8 7 6 5 4 5 6 6 6 6 6 6 6 5 4 3 3 3 3 3 3 3 3 4 5 6 7 7 8 8 8 8 8 9 9 10 10 11 12 12 14 15 17 18 19 21 22 24 26 28 30 31 33 35 37 39 39 39 39 39 37 37 39 40 40 39 38 38 38 38 38 38 39 43 47 49 51 51 50 50 47 43 38 33 30 31 33 34
13 12 10 10 10 10 10 10 9 9 8 7 5 4 4 5 5 5 5 5 4 4 4 3 2 2 3 4 4 4 4 4 5 6 7 8 8 8 9 9 9 9 9 10 11 12 12 12 13 15 16 18 19 20 21 22 24 26 27 29 31 33 35 37 39 39 39 40 39 37 38 39 40 40 39 38 37 38 38 38 37 40 44 47 49 51 51 50 49 47 43 38 34 33 33 35 35
14 13 11 10 10 10 9 9 9 9 8 7 5 4 4 4 4 4 3 3 3 3 2 2 2 3 5 5 4 4 4 5 6 7 7 8 8 9 9 9 9 9 10 11 12 13 13 13 14 15 17 18 19 20 21 22 24 25 27 29 32 34 36 38 40 39 39 40 38 37 38 40 40 40 38 37 37 38 38 37 37 40 43 46 49 51 52 51 49 46 44 40 37 35 35 35 35
13 13 12 11 10 9 8 7 7 7 7 6 5 4 4 4 4 3 3 3 2 2 2 3 4 5 5 4 3 3 4 5 6 7 7 8 8 8 9 9 9 10 11 12 13 14 14 14 14 16 18 19 20 21 22 23 24 25 27 29 32 35 36 38 39 39 39 40 38 37 38 40 41 40 38 37 37 37 37 36 37 39 43 46 49 52 52 51 49 46 43 40 37 35 34 36 35
13 13 12 11 10 9 8 7 6 6 6 5 6 6 5 5 4 4 4 3 3 4 4 5 6 6 5 4 4 4 4 5 6 7 7 8 8 8 9 10 10 11 12 12 13 14 15 15 15 16 18 19 20 21 22 23 24 25 27 29 32 34 36 38 39 38 39 40 38 37 39 40 41 39 38 37 37 37 37 36 36 39 42 45 48 50 51 50 49 47 43 39 35 34 35 37 36
14 15 13 11 10 9 9 8 7 7 7 7 7 7 6 5 5 5 5 4 4 5 5 6 7 7 6 6 6 6 6 7 8 8 9 9 9 9 9 10 11 12 12 13 14 14 15 16 16 17 18 19 20 21 22 23 24 25 27 29 32 34 36 38 38 38 39 39 37 37 38 40 40 39 37 37 37 37 37 35 36 38 41 43 46 48 49 49 48 47 43 40 37 36 37 37 37
14 15 14 12 10 9 8 9 9 8 9 9 8 8 7 6 5 4 4 4 4 5 5 5 6 7 7 7 7 8 8 9 9 10 10 11 11 10 11 11 12 12 13 14 14 15 15 16 17 17 18 19 20 21 22 23 24 25 27 29 32 34 36 38 38 38 39 39 37 37 38 40 40 39 37 36 37 37 36 35 35 37 40 42 44 47 48 47 47 46 44 43 41 38 37 37 36
13 15 16 14 12 11 10 10 11 10 9 9 9 8 7 6 5 4 3 3 3 4 4 4 5 6 7 8 8 8 9 9 10 10 11 11 11 11 11 11 12 13 14 15 15 16 16 16 17 17 18 19 20 21 22 23 24 25 27 29 32 34 36 38 38 38 39 38 36 37 38 40 40 38 37 36 36 36 36 35 34 36 39 41 43 46 48 47 46 45 44 44 42 40 37 37 36
12 14 16 16 15 13 12 11 11 11 10 9 8 8 7 5 4 3 2 2 2 4 5 5 5 5 6 8 9 9 9 10 10 10 11 11 10 10 10 11 12 13 14 15 16 17 17 17 18 18 18 19 20 21 22 23 24 25 27 29 32 34 36 37 37 38 38 37 36 36 38 39 39 38 37 36 36 36 36 35 34 35 38 40 42 44 47 48 46 45 43 41 40 38 36 36 36
11 13 14 15 15 14 12 11 10 10 10 9 8 7 6 5 4 3 2 2 2 4 6 6 6 5 4 6 8 9 9 9 10 10 10 10 10 11 11 11 11 12 13 15 16 17 17 17 18 18 18 19 20 21 22 23 24 25 27 29 32 34 36 37 37 37 37 36 36 36 37 39 39 38 37 36 36 36 36 35 34 34 36 39 41 43 45 48 48 46 44 42 39 37 35 35 35
10 13 14 14 14 13 12 11 11 11 11 9 8 6 5 4 4 3 2 2 3 5 7 9 9 9 7 6 6 8 8 8 9 9 10 10 10 11 11 11 12 13 14 15 16 17 17 18 18 18 18 18 20 20 21 23 24 25 27 29 32 34 35 36 36 37 36 35 35 36 37 38 39 38 37 36 36 35 35 35 33 33 35 38 40 42 44 46 48 47 46 45 42 40 39 37 35
10 11 13 14 13 13 12 12 11 12 12 11 9 8 6 6 6 5 5 5 5 5 7 10 12 12 11 9 8 9 9 10 10 10 11 12 12 12 12 12 13 14 15 15 16 17 18 18 18 18 18 18 19 20 21 22 24 25 27 29 32 33 35 36 36 36 35 34 35 35 36 38 38 38 37 35 35 35 35 34 33 33 34 36 39 41 43 44 46 48 48 47 46 44 43 42 41
11 11 11 12 13 13 12 11 10 11 12 12 11 10 9 7 7 7 8 9 8 8 8 10 12 13 13 12 12 12 11 11 12 12 13 14 14 14 13 13 14 14 15 16 16 17 18 18 18 18 17 18 19 19 20 22 23 25 27 29 31 33 34 35 35 35 34 34 34 35 36 37 37 37 36 35 34 34 34 34 34 33 33 35 37 40 42 43 45 47 48 48 48 47 46 46 45
10 10 9 10 10 10 10 9 8 9 10 10 10 11 10 9 9 9 9 9 9 7 8 10 11 13 13 14 15 16 15 14 13 14 14 15 15 15 15 15 15 15 15 15 16 17 17 18 18 18 17 17 18 19 20 21 23 25 27 29 31 32 34 34 34 34 33 33 34 34 35 36 37 37 36 34 34 34 34 34 34 33 32 33 36 38 40 42 43 45 46 48 48 48 47 46 45
8 8 8 8 7 7 8 7 7 8 9 9 9 9 9 9 9 10 10 10 9 7 6 9 11 12 14 14 15 16 17 16 15 14 14 15 15 16 16 15 15 15 15 16 16 16 17 18 18 17 17 16 17 18 19 20 22 24 26 29 31 32 33 34 34 34 32 32 33 34 35 36 36 36 36 35 34 33 33 33 34 33 32 32 34 36 38 40 42 43 44 46 47 47 48 47 44
7 6 6 6 6 5 5 6 6 7 8 8 7 6 7 7 7 8 10 10 9 8 7 8 9 11 12 14 15 16 16 15 15 15 15 15 15 15 15 15 15 15 15 15 16 16 17 17 18 17 16 16 16 17 18 19 21 23 26 28 30 31 33 33 34 33 31 31 33 34 35 35 36 36 36 35 34 33 32 33 33 33 32 31 32 34 36 38 40 41 42 44 45 46 47 47 45
8 7 7 7 6 5 4 4 4 5 6 6 6 5 6 6 6 7 9 9 8 7 8 9 10 11 12 13 14 16 16 15 15 15 15 15 15 14 14 14 14 14 14 14 15 16 17 17 17 17 16 15 16 16 17 18 20 23 25 28 29 31 32 32 33 32 30 31 33 34 34 35 35 35 36 35 34 32 32 32 32 33 32 31 31 32 34 36 38 40 41 42 42 44 44 45 45
9 8 9 9 7 7 7 5 4 4 5 5 5 5 6 7 7 7 8 8 7 6 7 10 11 12 13 13 14 15 16 16 16 16 16 15 15 14 14 14 14 14 14 14 15 15 17 17 17 16 15 15 15 15 16 18 20 22 24 27 29 30 31 32 33 32 29 30 32 33 34 34 34 35 35 35 34 32 31 31 31 32 32 31 30 30 32 34 36 37 39 40 40 41 42 43 44
9 10 11 10 9 8 7 7 6 5 4 4 4 5 6 7 8 8 8 7 7 7 8 11 13 13 14 15 15 16 18 18 18 17 17 16 15 14 14 15 14 14 14 14 15 15 16 17 17 16 15 14 14 14 15 17 19 21 24 26 28 29 30 31 32 31 28 29 31 32 33 34 34 34 35 35 34 32 31 31 31 31 31 31 31 30 30 31 33 35 37 38 39 40 40 40 41
9 11 11 10 9 9 9 9 8 6 5 5 5 5 6 7 7 8 8 7 8 9 10 12 13 14 15 16 18 19 20 20 20 20 19 18 16 15 15 15 15 14 14 14 15 15 16 17 17 17 15 14 14 14 14 16 18 21 23 25 27 28 29 30 31 29 27 28 30 32 33 33 33 34 34 34 34 33 31 30 30 30 30 31 30 30 29 30 31 33 35 36 38 39 39 39 39
Wind_Direction
271 273 277 279 276 270 265 263 265 268 270 274 274 275 275 275 270 263 260 255 254 259 262 263 259 251 238 230 228 222 221 223 223 222 218 216 212 207 208 206 207 213 219 226 234 243 253 259 266 272 279 283 285 285 285 286 289 293 296 299 302 304 303 303 302 302 302 303 304 306 307 307 306 305 304 304 303 302 301 301 300 298 297 296 295 294 293 292 291 290 289 288 287 286 285 284 283
274 281 286 286 283 280 280 278 278 276 278 284 283 280 278 276 269 264 261 255 256 258 254 248 247 233 191 186 192 185 182 184 185 191 192 198 198 201 211 209 210 214 220 232 244 256 259 262 270 276 280 282 282 284 287 290 294 297 300 304 306 306 305 305 305 304 305 306 308 309 308 307 306 305 306 305 303 302 301 300 299 298 297 296 296 295 294 293 293 292 291 290 290 289 288 287 286
296 302 304 301 296 293 292 286 280 279 284 287 283 280 276 273 268 262 259 254 252 238 220 200 164 117 130 145 155 152 152 155 158 169 177 187 193 200 211 216 219 225 238 253 259 261 261 263 269 272 274 279 285 289 291 293 296 300 303 305 306 307 306 308 307 306 309 310 311 309 308 308 307 307 306 305 304 304 303 302 301 301 300 300 300 299 299 298 297 297 296 295 294 293 292 291 289
325 315 308 302 297 297 296 288 290 294 293 290 285 283 281 279 274 250 242 235 196 175 158 139 128 114 115 124 138 141 141 148 154 162 173 185 186 193 206 210 215 226 242 252 256 259 261 261 259 264 277 287 292 291 294 298 301 304 306 307 309 310 311 312 310 311 314 314 312 310 311 311 310 308 308 308 307 306 306 305 305 305 304 305 305 304 304 303 302 301 301 300 299 297 295 294 293
340 316 309 302 295 293 306 306 306 309 297 291 289 289 296 295 113 116 130 98 99 133 139 126 121 118 118 122 132 137 138 146 153 155 165 178 169 179 195 193 190 196 216 229 238 247 250 253 258 271 281 285 288 291 296 300 303 306 309 313 315 317 317 316 314 316 317 315 314 314 314 312 310 310 310 310 309 309 309 309 309 309 308 309 307 307 306 305 304 304 302 301 299 298 296 295 294
344 324 321 317 311 303 317 323 318 311 281 283 290 234 15 30 86 74 90 104 106 122 124 119 120 123 125 125 129 133 135 142 149 149 151 157 153 163 173 168 166 167 184 201 208 227 233 240 256 267 272 276 283 290 296 302 308 314 318 322 322 321 320 319 318 320 318 317 317 315 314 312 311 312 312 313 313 313 314 313 312 312 311 310 308 308 306 305 304 303 301 300 299 297 296 295 294
347 338 335 334 330 319 323 332 333 329 232 133 72 80 48 27 58 70 103 108 106 117 121 121 123 126 126 125 130 133 132 138 144 139 136 144 146 146 148 146 145 148 166 185 194 212 219 227 248 262 270 277 286 294 305 316 324 328 328 327 325 324 323 322 322 322 319 319 319 316 315 315 317 318 318 318 317 318 317 316 315 314 313 310 309 309 307 305 304 302 301 300 299 298 297 295 293
349 347 346 345 339 329 328 333 350 56 99 89 66 66 58 51 65 70 95 107 106 115 122 126 128 130 129 128 131 134 134 135 137 134 138 146 145 139 139 136 134 149 178 190 197 210 219 228 250 265 274 285 297 309 324 334 336 332 330 329 328 330 326 324 325 324 322 323 322 321 322 324 325 324 322 321 321 320 319 317 315 314 312 310 309 308 307 305 304 303 302 300 298 297 296 294 292
345 349 350 349 344 335 331 333 10 67 81 79 68 71 68 65 72 71 84 102 108 116 125 129 134 136 135 132 133 136 133 130 132 134 139 142 142 144 147 146 153 174 189 195 199 214 223 224 250 268 281 300 315 337 346 347 345 340 341 343 343 338 331 330 332 331 332 330 328 328 329 329 328 326 324 322 321 320 318 316 314 312 311 310 309 308 307 306 305 304 303 301 299 297 296 294 292
355 355 352 351 349 339 337 358 35 66 79 81 78 77 74 71 73 74 84 102 114 122 127 127 132 136 140 141 136 132 127 129 132 133 138 138 141 147 153 163 170 179 192 197 193 202 208 185 209 231 263 327 18 49 36 32 41 30 17 4 355 347 341 341 340 339 339 335 332 332 331 330 328 326 325 322 321 320 318 316 314 312 312 311 310 309 308 306 305 304 303 301 300 298 297 296 294
3 357 354 354 351 339 352 27 39 67 83 87 84 79 77 74 76 81 90 105 118 125 126 123 124 131 147 150 135 127 127 133 133 133 137 132 137 149 158 171 167 176 194 190 176 168 151 144 141 127 121 115 107 108 101 80 62 42 24 9 2 355 349 347 345 344 341 336 334 334 331 329 328 327 325 322 321 319 318 317 315 314 314 313 312 310 308 306 305 303 302 300 299 298 297 295 294
6 358 357 0 358 335 16 49 57 73 89 92 88 87 87 87 87 89 96 108 118 124 130 128 127 135 154 154 134 127 129 131 129 131 134 133 146 158 161 165 160 168 177 162 150 138 132 130 121 118 120 117 111 105 88 68 48 32 18 11 5 357 352 349 348 346 342 337 334 332 331 329 327 326 324 321 320 318 318 317 315 314 314 313 310 308 307 306 305 303 302 301 299 298 297 295 293
10 359 357 5 11 356 43 66 71 76 94 100 97 99 99 98 96 96 100 108 116 126 132 128 129 136 150 148 133 127 128 126 125 129 134 142 152 152 151 152 146 150 149 142 136 130 128 124 119 118 115 107 102 88 68 53 37 24 15 12 5 356 352 350 348 344 340 335 332 330 329 327 325 323 321 320 319 318 317 317 315 314 313 311 309 308 307 307 306 305 304 303 302 301 299 296 294
8 353 357 8 12 25 57 74 83 94 104 102 101 104 102 100 102 105 108 111 116 125 127 123 125 128 136 139 129 125 125 122 125 133 136 137 136 135 141 140 135 138 138 134 131 127 124 120 116 112 106 97 88 71 56 43 32 21 12 8 2 356 352 348 344 340 336 333 330 328 326 324 322 321 320 320 319 319 318 316 315 313 313 313 311 310 310 309 308 307 306 304 303 301 299 297 294
358 343 357 13 19 53 80 87 95 112 116 110 112 110 106 109 110 114 119 118 118 122 123 119 121 124 131 134 127 123 122 124 128 133 133 124 120 122 129 132 132 134 133 131 127 122 119 114 110 104 96 85 73 60 48 37 28 18 9 4 359 354 347 342 339 336 332 329 327 324 323 322 322 322 322 321 320 319 317 316 315 316 316 316 314 313 312 311 309 308 306 304 302 300 299 297 295
347 343 357 18 36 65 96 105 112 128 130 122 122 115 114 124 124 122 127 128 125 126 127 126 125 125 132 134 125 121 122 126 127 131 133 126 124 125 129 133 133 132 130 127 121 117 113 108 104 96 85 71 60 50 41 32 24 13 3 359 354 349 343 338 336 332 328 326 324 323 323 323 323 323 323 321 320 319 318 318 319 319 318 317 316 314 313 312 310 309 308 306 304 302 300 298 296
343 355 4 25 41 45 72 92 106 128 146 115 107 109 114 124 127 126 131 137 134 132 135 135 133 130 135 132 123 120 121 124 126 131 131 127 129 130 132 132 130 128 125 120 115 111 107 102 95 86 74 61 52 45 38 27 17 5 358 354 349 344 340 335 331 327 325 324 324 324 325 325 324 324 323 321 321 322 323 322 321 320 319 319 318 317 316 315 313 312 311 309 307 305 303 300 297
353 2 9 30 40 32 36 46 83 107 123 90 77 95 106 116 124 129 133 138 136 137 140 135 132 133 135 131 123 121 119 123 128 127 127 128 133 132 131 129 126 124 120 116 111 106 100 91 82 74 65 56 48 41 32 20 9 359 353 349 342 338 334 330 327 325 325 325 326 326 326 326 325 324 324 324 325 325 324 323 322 322 322 323 322 321 320 318 316 314 313 311 309 307 304 302 299
0 6 16 37 41 30 25 25 63 90 87 65 62 87 107 123 124 124 126 136 138 140 139 129 129 133 134 131 130 130 126 127 128 126 128 132 133 130 127 124 122 119 115 110 104 98 91 82 75 67 60 52 43 34 23 11 2 354 348 343 337 333 330 328 326 326 327 328 328 328 328 328 327 326 327 328 327 325 325 325 326 327 326 325 324 322 320 318 317 315 314 312 310 308 306 304 301
8 15 22 37 38 31 33 35 48 89 104 65 89 117 127 122 128 125 116 130 137 135 132 122 124 130 129 129 130 131 128 127 127 128 130 131 129 126 124 121 118 114 108 102 96 90 84 78 70 63 57 50 40 30 17 4 356 349 343 338 334 331 329 328 329 330 330 330 330 331 331 329 329 329 330 329 327 327 328 330 329 328 326 324 322 321 319 318 317 315 314 313 311 310 307 305 303
14 18 22 33 34 33 37 37 43 64 93 93 112 127 124 120 136 124 112 128 129 125 125 117 116 121 124 125 124 125 125 125 128 130 130 129 127 125 122 119 114 109 103 98 93 87 82 75 68 62 56 47 35 23 9 358 351 345 340 336 334 332 331 332 334 335 334 333 334 334 332 331 331 331 330 329 329 331 331 330 327 325 323 322 321 320 319 318 317 316 315 313 312 310 308 305 302
13 16 22 30 29 37 43 38 36 39 50 86 122 124 119 119 127 117 115 132 124 118 121 115 114 116 119 121 121 123 125 128 131 131 130 128 125 123 120 116 110 106 101 96 92 86 81 77 71 64 53 40 27 14 1 352 347 342 339 337 337 336 336 338 339 339 337 336 336 335 333 333 333 332 330 331 331 331 329 327 324 322 321 321 320 320 319 319 318 316 315 313 311 309 307 305 302
11 17 28 32 28 36 48 46 44 53 67 93 116 118 111 110 121 124 127 135 126 119 116 115 118 118 119 119 121 125 128 130 129 128 127 125 123 120 116 111 107 103 98 94 89 86 83 79 71 61 47 33 18 5 354 349 345 342 343 343 342 342 343 343 343 341 339 337 338 337 336 335 333 331 331 332 330 328 326 324 322 322 321 321 321 321 321 320 318 316 314 313 311 309 307 304 301
13 24 39 44 38 42 50 54 60 75 89 103 110 110 109 114 131 133 133 141 133 123 117 117 120 120 121 122 125 128 129 128 126 126 125 123 120 115 111 107 103 100 96 93 89 87 83 74 63 50 36 23 9 359 352 349 347 347 349 349 349 348 347 345 343 342 340 340 340 339 337 335 332 331 332 330 328 325 324 323 323 323 323 323 323 322 321 320 318 316 315 313 311 309 306 302 299
22 35 49 50 49 53 58 65 76 88 97 101 104 109 116 125 138 135 134 144 134 123 121 121 122 123 125 127 129 130 128 128 127 126 123 118 114 110 107 104 102 99 96 94 91 85 76 67 55 41 25 11 3 357 354 354 353 353 355 356 355 352 348 346 346 345 344 343 342 339 336 334 332 332 331 329 326 325 325 325 325 325 325 324 324 323 322 320 318 317 315 313 311 308 304 301 298
31 44 53 51 53 59 64 71 79 86 91 91 104 116 118 126 137 134 134 140 130 123 123 124 126 126 128 130 130 129 128 127 124 120 116 112 108 106 105 103 101 98 96 92 87 79 70 62 49 31 14 5 1 359 360 0 359 359 0 0 357 352 348 349 349 348 346 344 341 338 336 334 333 333 331 328 327 327 327 327 327 327 327 326 325 324 322 320 319 317 316 313 311 308 305 303 301
34 45 54 55 56 62 65 74 81 87 90 90 110 118 113 118 128 130 129 129 124 123 125 126 128 128 130 130 128 127 124 120 116 112 110 107 105 105 105 102 98 95 92 88 81 74 66 56 36 17 7 5 3 4 5 5 4 3 3 1 356 353 352 353 352 349 346 344 341 338 337 336 335 333 331 329 329 329 330 330 330 330 328 327 326 325 323 321 319 319 317 315 313 310 307 306 305
38 46 58 64 66 69 68 79 87 96 93 92 111 113 108 113 120 126 126 124 122 124 126 127 129 130 129 127 123 120 115 112 110 108 107 106 106 106 103 100 96 92 88 83 76 69 62 44 22 10 7 6 6 7 8 8 7 5 3 0 357 356 356 355 353 350 347 345 342 340 339 337 335 333 332 331 331 332 332 332 332 331 330 329 328 326 324 322 322 321 319 317 315 312 311 310 309
44 48 58 64 70 75 74 82 86 90 93 94 106 106 104 110 119 126 126 125 125 125 127 129 131 130 127 123 119 115 111 110 109 108 109 108 107 104 101 96 92 87 82 75 70 64 53 32 15 10 8 8 8 9 10 10 7 4 3 1 359 359 357 355 353 350 348 346 344 342 341 338 336 334 333 333 334 333 334 334 334 333 332 331 330 328 326 325 325 323 319 317 316 316 316 315 313
48 50 54 56 62 71 70 72 74 80 92 98 101 100 103 108 118 125 124 124 125 127 131 131 130 127 124 121 117 114 112 111 110 110 109 107 104 100 95 90 84 79 73 69 65 54 37 22 14 11 8 8 10 12 11 9 5 4 3 2 1 359 357 355 352 350 349 347 346 344 343 340 338 336 336 336 336 335 336 336 336 335 335 333 331 330 329 327 325 323 321 320 321 321 320 318 316
53 54 55 53 54 63 69 70 74 78 87 96 99 100 102 107 114 118 120 122 125 129 131 129 126 124 122 120 118 116 113 113 113 110 106 104 100 94 88 83 76 69 64 64 56 31 19 17 15 12 9 9 11 12 9 5 4 4 3 2 2 359 357 355 352 351 349 348 348 346 345 343 341 340 339 338 338 338 339 339 338 338 337 335 333 333 331 328 326 325 325 326 327 326 324 321 319
56 56 56 55 54 60 73 80 84 82 82 89 98 100 101 105 111 114 118 124 128 131 129 126 123 122 122 119 116 115 115 116 114 107 102 101 94 85 79 73 66 57 49 49 37 10 8 13 14 12 9 9 10 8 5 3 4 4 3 2 1 359 357 355 353 352 350 349 349 348 347 345 344 342 341 340 340 341 341 341 340 340 339 337 336 334 332 330 329 330 331 333 332 329 327 324 322
57 54 57 60 60 63 75 86 90 90 87 86 92 98 101 103 109 115 122 129 131 129 127 125 124 122 120 114 112 113 115 114 111 104 97 93 84 73 63 50 46 40 24 21 15 0 2 9 12 10 7 6 6 4 2 4 5 3 2 1 359 358 357 355 354 352 351 350 350 349 348 347 345 343 342 342 342 344 344 343 343 342 341 339 338 336 335 334 334 336 337 337 335 332 330 327 326
59 55 56 59 62 65 73 81 86 89 89 88 90 93 96 97 102 118 127 132 133 129 127 126 123 119 113 110 111 112 112 110 103 96 88 78 67 54 35 17 17 19 7 0 0 357 1 6 9 7 2 360 359 359 1 3 3 1 1 360 358 357 357 356 354 352 351 351 351 350 349 348 346 344 344 344 345 347 346 345 345 345 343 341 340 339 339 339 339 341 341 338 337 336 335 332 331
62 58 56 57 60 64 68 73 78 85 90 93 96 95 95 94 102 119 128 132 133 130 128 125 120 116 112 110 108 106 105 99 92 83 73 59 48 35 13 356 356 3 357 350 352 354 359 3 4 1 354 352 354 357 0 2 0 360 359 358 357 357 357 356 354 352 351 352 352 351 350 348 346 345 346 347 349 349 348 348 348 347 345 343 343 343 344 344 345 345 343 340 340 341 339 337 337
60 60 59 57 58 61 66 69 73 79 87 94 100 103 104 105 112 124 131 134 134 130 125 122 120 115 111 106 100 97 94 85 74 62 51 38 30 20 2 348 349 354 351 347 346 350 355 359 359 354 348 348 351 355 359 360 358 358 357 356 356 356 355 354 353 352 352 353 353 351 350 348 347 347 348 350 352 351 350 350 350 348 346 345 346 347 348 349 348 347 344 343 343 344 343 343 343
53 55 58 58 57 57 59 64 70 74 79 82 88 103 112 116 121 129 136 138 135 129 123 122 118 111 104 98 91 82 70 61 47 33 25 18 14 7 355 346 346 350 348 343 342 344 348 352 352 348 344 345 348 353 358 358 357 357 356 355 355 354 354 353 352 352 353 354 353 351 350 349 348 349 351 353 353 353 352 353 352 350 348 349 350 351 352 352 351 348 346 346 346 346 349 350 348
47 46 50 55 57 55 52 54 62 70 78 84 81 90 108 116 124 133 139 139 134 126 122 120 113 103 94 87 77 53 31 20 15 10 6 8 5 358 351 346 345 347 345 341 337 337 342 345 345 343 342 342 345 351 357 357 356 355 355 354 352 352 352 351 351 353 354 354 353 352 351 349 350 352 353 355 355 354 355 354 353 351 352 353 354 355 356 354 352 350 349 348 349 352 356 355 351
46 40 40 47 53 58 57 54 56 60 69 80 83 86 99 110 120 131 135 134 129 122 120 117 108 96 81 71 56 31 3 357 3 1 1 4 358 352 348 346 345 345 344 338 331 331 336 339 339 339 340 341 343 350 355 356 355 354 353 351 350 350 351 351 352 354 355 354 353 352 351 351 352 353 355 356 356 356 356 356 355 354 355 356 357 358 357 356 356 355 354 355 358 1 1 357 352
47 43 43 45 48 52 54 55 58 60 61 65 73 83 91 98 107 117 125 123 120 118 119 112 95 64 43 39 34 16 351 352 1 1 1 360 354 349 347 345 344 344 343 335 327 327 331 334 336 338 338 340 343 349 354 355 354 352 351 349 348 349 351 352 353 354 355 354 353 352 352 352 353 355 357 357 358 358 358 358 357 357 359 359 359 0 359 359 2 2 3 7 9 7 3 358 354
48 49 53 54 47 44 45 47 55 62 65 66 72 79 82 87 92 97 106 110 112 112 104 75 41 29 27 26 19 357 347 355 1 2 360 356 352 349 346 345 343 344 343 333 325 325 328 330 335 336 337 340 343 347 351 353 352 351 349 348 348 349 351 352 353 355 355 354 353 353 353 353 354 356 358 359 359 359 360 359 359 0 2 1 2 3 2 3 7 10 12 14 12 9 5 2 359
49 55 61 61 51 44 42 39 45 56 62 69 74 74 74 75 76 79 82 86 82 69 44 19 14 20 20 12 356 344 348 357 358 358 357 352 351 349 345 343 343 346 343 334 326 325 327 329 334 335 335 339 343 346 349 351 351 349 348 349 349 349 351 353 354 354 355 355 354 353 354 354 356 358 359 -0 0 1 1 1 1 3 4 4 4 5 5 6 11 15 16 16 13 11 9 7 7
51 56 61 62 56 48 46 43 43 48 52 61 66 67 68 64 58 57 58 55 44 28 12 359 2 9 2 338 335 343 346 351 352 349 347 344 342 342 342 342 344 345 341 333 327 326 327 329 334 334 335 338 342 345 347 349 349 348 348 348 348 349 351 353 354 355 356 356 355 354 355 356 357 359 0 1 1 2 2 2 2 5 7 7 7 8 7 8 12 16 17 16 13 12 13 13 15
51 54 54 56 55 50 50 50 49 48 49 54 57 59 63 61 54 49 46 41 30 17 4 355 356 354 341 329 335 342 342 344 345 342 339 335 332 332 336 339 342 342 337 331 328 328 328 331 333 334 334 337 341 344 345 347 347 347 347 347 347 349 352 354 354 355 356 357 355 355 356 357 358 -0 1 2 2 2 3 3 4 7 9 8 9 10 11 12 13 15 16 15 12 11 13 16 20
50 56 57 57 55 50 49 50 50 53 56 56 56 59 62 63 62 56 49 40 26 12 358 351 351 344 332 328 333 336 339 340 340 339 336 331 328 327 330 335 335 334 330 326 326 327 329 332 333 332 333 337 340 343 344 345 346 346 347 347 347 349 352 354 354 355 357 357 356 356 357 358 359 1 2 3 3 3 3 4 5 8 10 10 10 12 15 16 16 16 16 15 13 12 11 14 20
47 56 57 58 56 51 53 54 52 56 63 64 62 62 64 67 69 69 66 47 17 354 343 344 347 341 329 327 331 334 336 337 338 339 336 331 327 325 327 330 330 327 324 322 322 324 327 331 331 331 333 337 340 343 343 344 345 345 346 346 346 350 353 354 354 355 357 357 356 357 358 359 359 1 3 3 4 4 4 4 5 8 11 11 11 13 16 19 20 20 20 18 15 13 10 12 18
49 56 56 55 54 52 53 56 55 59 65 68 66 63 62 64 64 64 69 58 9 326 321 330 337 338 328 324 329 335 337 338 338 337 334 329 325 323 324 327 328 326 323 320 319 320 324 328 328 328 333 336 339 342 343 344 344 344 346 346 346 350 353 354 354 355 357 358 357 358 359 359 360 2 4 4 4 4 4 4 5 8 12 13 13 14 17 20 22 24 25 25 22 17 13 13 16
50 59 56 49 47 47 51 54 55 58 60 60 62 61 62 64 57 48 37 19 340 313 312 316 315 316 319 318 321 328 334 336 334 331 325 321 319 319 321 325 327 328 325 322 321 320 323 324 324 325 330 335 338 341 342 343 344 344 345 345 346 351 353 354 353 354 357 358 357 358 359 359 0 2 4 5 4 4 4 4 5 8 12 13 14 15 17 19 22 25 27 29 30 27 22 19 19
48 55 53 44 39 43 50 54 54 52 49 46 47 48 49 49 39 30 18 353 326 310 307 306 305 304 305 305 308 314 321 327 326 320 315 311 311 312 316 321 326 327 326 325 323 323 323 323 321 322 327 332 335 338 341 343 343 344 345 345 346 351 353 353 353 354 357 358 357 358 360 360 1 3 5 5 4 4 4 4 5 7 11 14 15 16 18 19 21 24 27 29 32 33 33 30 28
47 47 45 37 34 40 48 52 49 46 45 40 35 36 31 22 10 357 347 336 323 310 301 298 299 301 304 307 307 308 312 316 316 313 310 308 308 309 312 317 322 324 325 326 326 325 325 323 321 321 325 329 332 335 339 342 343 344 345 345 346 351 353 353 353 354 357 358 357 359 0 0 1 4 5 5 4 4 4 4 5 7 11 13 15 16 18 20 21 23 26 28 30 33 36 36 34
45 43 37 27 24 31 41 49 47 42 43 41 37 38 36 28 14 357 344 334 322 307 292 291 296 299 304 312 315 315 315 313 312 310 309 309 310 311 313 316 319 321 324 326 327 326 325 322 321 323 325 328 329 332 336 340 342 343 344 345 347 350 353 352 352 354 356 357 357 359 0 1 2 4 6 5 4 4 4 4 5 7 10 13 15 16 18 20 21 23 25 28 29 31 34 36 36
34 34 29 21 13 15 23 37 47 43 41 42 40 39 36 27 17 8 1 352 339 319 293 288 294 300 307 313 315 316 315 312 310 309 308 309 311 314 316 317 317 318 320 323 326 326 323 321 322 324 326 327 327 329 334 338 341 343 344 344 346 350 352 352 352 354 356 356 357 358 0 1 2 4 6 6 5 4 4 3 5 7 10 13 14 15 17 19 21 23 25 27 29 31 32 34 36
16 16 19 22 12 2 2 14 36 41 37 40 46 44 32 20 11 7 7 4 357 344 313 297 299 306 311 313 313 312 310 308 307 306 307 310 313 315 317 317 316 315 316 319 322 324 323 323 324 326 328 328 326 326 332 337 339 342 343 344 346 350 352 351 351 354 356 356 356 358 0 1 2 4 6 6 5 4 4 3 4 7 9 12 14 15 17 19 21 22 24 26 28 30 33 33 35
351 351 356 8 4 358 359 2 19 33 35 38 45 45 29 15 6 357 358 2 357 345 332 320 315 315 315 316 317 315 313 311 309 308 309 310 311 313 315 316 314 313 314 317 320 322 324 327 328 329 329 327 324 326 331 335 338 341 342 343 346 349 351 350 350 353 355 355 356 358 0 1 2 4 6 6 5 5 4 3 4 6 8 10 14 15 16 18 20 22 24 25 27 29 32 33 34
333 333 335 342 338 337 340 346 8 18 20 24 23 21 15 7 0 350 348 355 355 342 332 327 321 316 315 318 319 317 316 316 315 314 313 310 307 307 312 314 313 314 315 317 320 324 328 332 333 331 329 326 324 327 331 334 337 340 341 343 345 348 350 349 350 353 355 355 356 358 360 1 2 4 6 6 5 5 4 4 4 5 6 9 12 15 16 17 19 21 23 25 26 28 30 32 33
318 321 330 337 333 328 327 323 337 352 358 9 4 359 4 357 349 348 345 343 341 334 324 317 314 312 311 314 315 315 315 316 317 317 317 315 309 306 308 311 313 315 316 318 323 328 332 334 335 333 330 327 326 328 331 334 337 339 340 342 345 347 349 349 349 352 354 354 355 357 359 0 2 4 6 5 5 5 4 5 5 4 5 7 10 14 16 16 18 20 22 23 25 27 29 31 33
309 315 325 336 337 335 332 323 323 341 1 16 8 354 357 351 339 340 341 332 320 313 309 308 308 308 308 309 311 313 314 315 317 318 317 317 314 311 311 311 312 315 317 321 326 332 335 335 335 335 332 330 328 329 333 335 337 339 340 342 344 346 349 349 349 352 354 354 355 356 358 360 2 4 6 5 5 5 4 5 6 5 4 5 8 11 14 16 16 18 21 22 23 24 27 30 32
306 316 324 334 338 337 337 331 332 343 354 7 13 355 344 341 334 332 331 323 309 302 301 303 304 304 304 305 308 309 311 313 315 318 319 319 317 316 317 316 313 313 318 324 328 334 336 335 336 337 335 331 329 331 335 336 338 338 340 342 343 345 347 348 348 351 353 354 355 356 358 359 2 4 5 5 4 5 5 5 6 6 5 5 6 9 12 14 15 16 19 21 21 22 24 27 30